Location: Góry Miechowskie
(50.3599°N, 20.1803°E)
Time: 03:06:12
(UTC+00:00)

Cosmos 2123 Rocket - Pass Details

Date: 15 June 2024
Orbit: 961 x 991 km, 82.9° (Epoch: 22 July)

Event Time Altitude Azimuth Distance (km) Brightness Sun altitude
Rises 01:31:17 0° 349° (N) 3,659 7.6 -7.2°
Reaches altitude 10° 01:33:47 10° 349° (NNW) 2,709 6.9 -6.9°
Maximum altitude 01:39:59 81° 264° (W) 981 4.0 -6.3°
Drops below altitude 10° 01:46:10 10° 177° (S) 2,702 5.9 -5.6°
Sets 01:48:40 0° 176° (S) 3,648 6.6 -5.3°
